New Bedford, MA

10:37 AM EDT on June 29, 2017 (GMT -0400)
New Bedford Regional

Weather History for KEWB - December, 2013

Change the Weather History Date:

Monday, December 9, 2013

  Actual Average Record
Temperature  
Mean Temperature 36 °F -  
Max Temperature 42 °F 45 °F 65 °F (1966)
Min Temperature 30 °F 29 °F 8 °F (1989)
Degree Days  
Heating Degree Days 29    
Moisture  
Dew Point 34 °F    
Average Humidity 92    
Maximum Humidity 100    
Minimum Humidity 69    
Precipitation  
Precipitation 0.29 in - - ()
Sea Level Pressure  
Sea Level Pressure 30.14 in    
Wind  
Wind Speed 6 mph (NNE)    
Max Wind Speed 15 mph    
Max Gust Speed 17 mph    
Visibility 4 miles    
Events Fog , Rain , Snow    
Averages and records for this station are not official NWS values.
T = Trace of Precipitation, MM = Missing Value Source: NWS Daily Summary

Daily Weather History Graph

Daily Weather History Graph

Search for Another Location

Airport or City:

Trip Planner

Search our weather history database for the weather conditions in past years. The results will help you decide how hot, cold, wet, or windy it might be!

Date:

Astronomy

Dec. 09, 2013 Rise Set
Actual Time 6:59 AM EST 4:13 PM EST
Civil Twilight 6:27 AM EST 4:44 PM EST
Nautical Twilight 5:53 AM EST 5:19 PM EST
Astronomical Twilight 5:19 AM EST 5:53 PM EST
Moon 11:46 AM EST (12/9) No Moon Set
Length of Visible Light 10h 16m
Length of Day
9h 14m
Waxing Crescent, 51% of the Moon is Illuminated
Dec 9
Waxing Crescent
Dec 17
Full
Dec 25
Last Quarter
Jan 1
New
Jan 7
First Quarter

Hourly Weather History & Observations

Time (EST) Temp. Windchill Dew Point Humidity Pressure Visibility Wind Dir Wind Speed Gust Speed Precip Events Conditions
12:53 AM 30.0 °F 24.1 °F 21.0 °F 69% 30.45 in 9.0 mi NNE 5.8 mph - 0.00 in Snow Light Snow
1:20 AM 30.2 °F 24.3 °F 23.0 °F 75% 30.44 in 6.0 mi NE 5.8 mph - 0.00 in   Haze
1:31 AM 30.2 °F 23.4 °F 24.8 °F 80% 30.43 in 7.0 mi NE 6.9 mph - 0.00 in   Overcast
1:53 AM 30.0 °F 24.1 °F 25.0 °F 82% 30.43 in 9.0 mi NE 5.8 mph - 0.00 in   Overcast
2:53 AM 30.0 °F 25.2 °F 27.0 °F 88% 30.41 in 4.0 mi NE 4.6 mph - 0.01 in Snow Light Snow
3:12 AM 30.2 °F 24.3 °F 28.4 °F 93% 30.40 in 3.0 mi NE 5.8 mph - 0.00 in Snow Light Snow
3:23 AM 30.2 °F 24.3 °F 28.4 °F 93% 30.39 in 2.0 mi NE 5.8 mph - 0.00 in Snow Light Snow
3:41 AM 30.2 °F 25.4 °F 28.4 °F 93% 30.39 in 2.0 mi NE 4.6 mph - 0.01 in Snow Light Snow
3:50 AM 30.2 °F 24.3 °F 28.4 °F 93% 30.37 in 3.0 mi NE 5.8 mph - 0.02 in Snow Light Snow
3:51 AM 30.0 °F 24.1 °F 28.0 °F 92% 30.37 in 3.0 mi NE 5.8 mph - 0.02 in Snow Light Snow
4:23 AM 30.2 °F 23.4 °F 28.4 °F 93% 30.35 in 2.5 mi NE 6.9 mph - 0.01 in Rain Light Freezing Rain
4:37 AM 30.2 °F 22.6 °F 30.2 °F 100% 30.34 in 2.5 mi ENE 8.1 mph - 0.02 in Rain Light Freezing Rain
4:53 AM 32.0 °F 26.4 °F 30.0 °F 92% 30.35 in 3.0 mi NE 5.8 mph - 0.02 in Rain Light Freezing Rain
5:04 AM 32.0 °F 25.6 °F 30.2 °F 93% 30.34 in 4.0 mi NE 6.9 mph - 0.01 in Rain Light Freezing Rain
5:53 AM 33.1 °F 26.9 °F 30.9 °F 92% 30.31 in 3.0 mi ENE 6.9 mph - 0.02 in Rain Light Freezing Rain
6:03 AM 33.8 °F 25.8 °F 30.2 °F 87% 30.29 in 4.0 mi ENE 10.4 mph - 0.00 in Rain Light Rain
6:53 AM 34.0 °F 27.2 °F 32.0 °F 92% 30.28 in 4.0 mi East 8.1 mph - 0.03 in Rain Light Rain
7:53 AM 34.0 °F 26.0 °F 32.0 °F 92% 30.22 in 4.0 mi East 10.4 mph - 0.02 in Rain Light Rain
8:53 AM 36.0 °F 29.6 °F 34.0 °F 93% 30.17 in 3.0 mi East 8.1 mph - 0.02 in Rain Light Rain
9:53 AM 37.9 °F 31.5 °F 36.0 °F 93% 30.13 in 2.5 mi East 9.2 mph 17.3 mph 0.05 in Rain Light Rain
10:53 AM 39.0 °F 34.8 °F 37.9 °F 96% 30.12 in 4.0 mi East 5.8 mph - 0.07 in Rain Light Rain
11:53 AM 41.0 °F 36.4 °F 39.0 °F 93% 30.06 in 1.5 mi ENE 6.9 mph - 0.01 in Rain Light Rain
12:53 PM 39.9 °F 35.8 °F 39.0 °F 97% 30.00 in 1.5 mi NE 5.8 mph - 0.01 in   Overcast
1:53 PM 42.1 °F 39.2 °F 39.9 °F 92% 29.94 in 2.0 mi ENE 4.6 mph - N/A   Overcast
2:07 PM 42.8 °F 40.1 °F 41.0 °F 93% 29.93 in 1.8 mi NE 4.6 mph - N/A   Overcast
2:18 PM 42.8 °F 40.1 °F 41.0 °F 93% 29.92 in 2.0 mi NE 4.6 mph - N/A   Overcast
2:53 PM 42.1 °F 40.2 °F 42.1 °F 100% 29.91 in 1.5 mi North 3.5 mph - N/A   Overcast
3:53 PM 41.0 °F - 39.9 °F 96% 29.90 in 1.5 mi Calm Calm - 0.01 in   Overcast
4:53 PM 41.0 °F 39.0 °F 39.9 °F 96% 29.89 in 2.0 mi WNW 3.5 mph - N/A   Overcast
5:53 PM 41.0 °F 39.0 °F 39.9 °F 96% 29.89 in 2.0 mi WNW 3.5 mph - N/A   Overcast
6:53 PM 39.9 °F 36.7 °F 39.9 °F 100% 29.88 in 2.0 mi West 4.6 mph - N/A   Overcast
7:11 PM 41.0 °F 37.1 °F 39.2 °F 93% 29.89 in 1.2 mi WNW 5.8 mph - N/A   Overcast
7:18 PM 41.0 °F 37.1 °F 39.2 °F 93% 29.89 in 0.5 mi West 5.8 mph - N/A Fog Fog
7:53 PM 41.0 °F 36.4 °F 39.9 °F 96% 29.90 in 1.0 mi West 6.9 mph - N/A   Overcast
8:53 PM 41.0 °F 33.1 °F 39.9 °F 96% 29.91 in 6.0 mi West 15.0 mph - N/A   Overcast
9:51 PM 39.2 °F 31.6 °F 37.4 °F 93% 29.91 in 10.0 mi West 12.7 mph - N/A   Overcast
9:53 PM 39.9 °F 31.8 °F 37.9 °F 93% 29.92 in 10.0 mi West 15.0 mph - N/A   Overcast
10:53 PM 37.9 °F 30.9 °F 35.1 °F 89% 29.93 in 10.0 mi West 10.4 mph - N/A   Mostly Cloudy
11:07 PM 37.4 °F 30.8 °F 35.6 °F 93% 29.92 in 10.0 mi West 9.2 mph - N/A   Scattered Clouds
11:53 PM 36.0 °F 29.0 °F 34.0 °F 93% 29.91 in 10.0 mi West 9.2 mph - N/A   Clear